Weather History for Kimball, NE

Change the Weather History Date:

Tuesday, February 7, 2012

  Actual Average (KSNY) Record (KSNY)
Temperature  
Mean Temperature 20 °F 30 °F  
Max Temperature 24 °F 43 °F 64 °F (2002)
Min Temperature 17 °F 18 °F -12 °F (1971)
Degree Days  
Heating Degree Days 44 35  
Month to date heating degree days 245  
Since 1 July heating degree days 3902  
Cooling Degree Days 0 0  
Month to date cooling degree days 0  
Year to date cooling degree days 0  
Moisture  
Dew Point 17 °F    
Average Humidity 85    
Maximum Humidity 96    
Minimum Humidity 70    
Precipitation  
Precipitation 0.00 in 0.01 in 0.25 in (1997)
Month to date precipitation 0.06  
Year to date precipitation 0.26  
Sea Level Pressure  
Sea Level Pressure 30.32 in    
Wind  
Wind Speed 12 mph (North)    
Max Wind Speed 18 mph    
Max Gust Speed 23 mph    
Visibility 9 miles    
Events Snow    
T = Trace of Precipitation, MM = Missing Value Source: NWS Daily Summary

Daily Weather History Graph

Daily Weather History Graph

Search for Another Location

Airport:

Trip Planner

Search our weather history database for the weather conditions in past years. The results will help you decide how hot, cold, wet, or windy it might be!

Date:

Astronomy

Feb. 07, 2012 Rise Set
Actual Time 7:59 AM CST 6:18 PM CST
Civil Twilight 7:31 AM CST 6:47 PM CST
Nautical Twilight 6:58 AM CST 7:19 PM CST
Astronomical Twilight 6:26 AM CST 7:52 PM CST
Moon 6:32 PM CST (2/7) 7:29 AM CST (2/7)
Length of Visible Light 11h 16m
Length of Day
10h 18m
Full, 100% of the Moon is Illuminated
Feb 7
Full
Feb 7
Full
Feb 14
Last Quarter
Feb 21
New
Feb 29
First Quarter

Hourly Weather History & Observations

Time (CST) Temp. Windchill Dew Point Humidity Pressure Visibility Wind Dir Wind Speed Gust Speed Precip Events Conditions
12:15 AM 21.0 °F 7.1 °F 20.1 °F 96% 30.27 in 2.5 mi North 16.1 mph 20.7 mph N/A   Overcast
12:35 AM 20.8 °F 7.9 °F 19.8 °F 96% 30.27 in 3.0 mi North 13.8 mph - N/A   Overcast
12:55 AM 21.0 °F 7.6 °F 19.8 °F 95% 30.27 in 3.0 mi North 15.0 mph - N/A   Overcast
1:15 AM 20.8 °F 6.8 °F 19.4 °F 94% 30.27 in 5.0 mi North 16.1 mph - N/A   Overcast
1:35 AM 20.8 °F 6.8 °F 19.4 °F 94% 30.27 in 5.0 mi North 16.1 mph - N/A   Overcast
1:55 AM 20.8 °F 7.3 °F 19.0 °F 93% 30.27 in 7.0 mi North 15.0 mph 20.7 mph N/A Snow Light Snow
2:15 AM 20.7 °F 7.6 °F 18.9 °F 93% 30.27 in 10.0 mi North 13.8 mph 19.6 mph N/A   Overcast
2:35 AM 20.1 °F 5.9 °F 18.0 °F 91% 30.27 in 10.0 mi North 16.1 mph - N/A   Overcast
2:55 AM 19.9 °F 5.7 °F 17.6 °F 91% 30.28 in 10.0 mi North 16.1 mph 23.0 mph N/A Snow Light Snow
3:15 AM 19.8 °F 5.4 °F 17.2 °F 90% 30.28 in 10.0 mi North 16.1 mph - N/A Snow Light Snow
3:35 AM 19.4 °F 4.1 °F 17.6 °F 93% 30.28 in 10.0 mi North 18.4 mph - N/A Snow Light Snow
3:55 AM 19.4 °F 6.6 °F 17.6 °F 93% 30.29 in 7.0 mi North 12.7 mph 18.4 mph N/A Snow Light Snow
4:15 AM 18.5 °F 4.3 °F 16.0 °F 90% 30.29 in 10.0 mi North 15.0 mph 19.6 mph N/A Snow Light Snow
4:35 AM 18.3 °F 3.6 °F 15.8 °F 90% 30.29 in 10.0 mi North 16.1 mph 20.7 mph N/A Snow Light Snow
4:55 AM 18.3 °F 4.1 °F 15.8 °F 90% 30.29 in 10.0 mi North 15.0 mph - N/A Snow Light Snow
5:15 AM 18.3 °F 5.2 °F 15.8 °F 90% 30.29 in 10.0 mi North 12.7 mph - N/A Snow Light Snow
5:35 AM 18.5 °F 6.1 °F 16.0 °F 90% 30.30 in 10.0 mi North 11.5 mph - N/A Snow Light Snow
5:55 AM 18.5 °F 6.1 °F 16.2 °F 91% 30.30 in 10.0 mi North 11.5 mph - N/A   Overcast
6:15 AM 18.5 °F 6.1 °F 16.2 °F 91% 30.31 in 10.0 mi North 11.5 mph - N/A   Overcast
6:35 AM 18.3 °F 5.2 °F 15.6 °F 89% 30.32 in 10.0 mi North 12.7 mph - N/A   Overcast
6:55 AM 18.1 °F 6.3 °F 15.8 °F 91% 30.32 in 10.0 mi North 10.4 mph - N/A   Overcast
7:15 AM 18.1 °F 5.0 °F 15.8 °F 91% 30.33 in 10.0 mi North 12.7 mph - N/A   Overcast
7:35 AM 18.0 °F 5.4 °F 15.8 °F 91% 30.33 in 7.0 mi North 11.5 mph - N/A Snow Light Snow
7:55 AM 17.6 °F 4.3 °F 15.8 °F 93% 30.33 in 10.0 mi North 12.7 mph - N/A   Overcast
8:15 AM 17.8 °F 5.9 °F 15.8 °F 92% 30.34 in 7.0 mi North 10.4 mph - N/A Snow Light Snow
8:35 AM 17.6 °F 5.7 °F 15.3 °F 91% 30.34 in 10.0 mi North 10.4 mph - N/A   Overcast
8:55 AM 17.8 °F 6.6 °F 15.8 °F 92% 30.35 in 10.0 mi NNE 9.2 mph - N/A   Overcast
9:15 AM 18.1 °F 7.1 °F 15.8 °F 91% 30.35 in 10.0 mi NNE 9.2 mph - N/A   Overcast
9:35 AM 18.1 °F 7.9 °F 15.8 °F 91% 30.37 in 10.0 mi North 8.1 mph - N/A   Overcast
9:55 AM 18.5 °F 7.5 °F 16.0 °F 90% 30.37 in 10.0 mi North 9.2 mph - N/A   Overcast
10:15 AM 18.9 °F 6.5 °F 15.8 °F 88% 30.37 in 10.0 mi North 11.5 mph - N/A   Overcast
10:35 AM 19.4 °F 7.2 °F 15.8 °F 86% 30.37 in 10.0 mi North 11.5 mph - N/A   Overcast
10:55 AM 19.8 °F 10.8 °F 15.6 °F 84% 30.38 in 7.0 mi North 6.9 mph - N/A Snow Light Snow
11:15 AM 19.8 °F 11.9 °F 16.0 °F 85% 30.38 in 2.5 mi North 5.8 mph - N/A Snow Light Snow
11:35 AM 20.5 °F 14.0 °F 16.3 °F 84% 30.38 in 4.0 mi North 4.6 mph - N/A Snow Light Snow
11:55 AM 20.5 °F 12.8 °F 16.2 °F 83% 30.37 in 5.0 mi NNW 5.8 mph - N/A Snow Light Snow
12:15 PM 21.0 °F 13.4 °F 16.0 °F 81% 30.37 in 10.0 mi North 5.8 mph - N/A   Overcast
12:35 PM 21.0 °F 12.4 °F 15.8 °F 80% 30.36 in 10.0 mi North 6.9 mph - N/A   Overcast
12:55 PM 21.9 °F 12.5 °F 16.0 °F 78% 30.35 in 10.0 mi NNE 8.1 mph - N/A   Overcast
1:15 PM 22.5 °F 14.1 °F 16.3 °F 77% 30.34 in 10.0 mi North 6.9 mph - N/A   Overcast
1:35 PM 22.6 °F 13.4 °F 16.0 °F 76% 30.34 in 10.0 mi NNE 8.1 mph - N/A   Overcast
1:55 PM 23.2 °F 17.2 °F 15.6 °F 73% 30.33 in 10.0 mi NNE 4.6 mph - N/A   Overcast
2:15 PM 24.1 °F 17.0 °F 16.3 °F 72% 30.32 in 10.0 mi NNE 5.8 mph - N/A   Overcast
2:35 PM 24.1 °F 18.2 °F 16.2 °F 72% 30.32 in 10.0 mi North 4.6 mph - N/A   Overcast
2:55 PM 24.1 °F - 16.2 °F 72% 30.32 in 10.0 mi Calm Calm - N/A   Overcast
3:15 PM 24.3 °F 19.9 °F 16.5 °F 72% 30.32 in 10.0 mi North 3.5 mph - N/A   Overcast
3:35 PM 24.3 °F 19.9 °F 16.5 °F 72% 30.32 in 10.0 mi NE 3.5 mph - N/A   Overcast
3:55 PM 24.4 °F 20.1 °F 16.5 °F 72% 30.32 in 10.0 mi NNE 3.5 mph - N/A   Overcast
4:15 PM 23.7 °F - 15.6 °F 71% 30.32 in 10.0 mi Calm Calm - N/A   Mostly Cloudy
4:35 PM 24.6 °F 18.8 °F 16.2 °F 70% 30.31 in 10.0 mi East 4.6 mph - N/A   Clear
4:55 PM 23.5 °F - 15.6 °F 72% 30.31 in 10.0 mi Calm Calm - N/A   Scattered Clouds
5:15 PM 23.0 °F - 15.6 °F 73% 30.31 in 10.0 mi Calm Calm - N/A   Scattered Clouds
5:35 PM 22.1 °F 15.9 °F 15.8 °F 77% 30.31 in 10.0 mi East 4.6 mph - N/A   Scattered Clouds
5:55 PM 21.4 °F 16.6 °F 16.3 °F 81% 30.30 in 10.0 mi ENE 3.5 mph - N/A   Mostly Cloudy
6:15 PM 21.2 °F 13.6 °F 16.0 °F 80% 30.30 in 10.0 mi ENE 5.8 mph - N/A   Overcast
6:35 PM 20.3 °F 11.5 °F 15.8 °F 83% 30.30 in 10.0 mi ENE 6.9 mph - N/A   Overcast
6:55 PM 20.3 °F 11.5 °F 16.2 °F 84% 30.29 in 10.0 mi East 6.9 mph - N/A   Overcast
7:15 PM 20.1 °F 12.3 °F 16.0 °F 84% 30.29 in 10.0 mi East 5.8 mph - N/A   Overcast
7:35 PM 19.4 °F 12.8 °F 15.8 °F 86% 30.29 in 10.0 mi East 4.6 mph - N/A   Overcast
7:55 PM 18.5 °F 10.4 °F 15.6 °F 89% 30.29 in 10.0 mi ESE 5.8 mph - N/A   Overcast
8:15 PM 17.6 °F 12.3 °F 14.9 °F 89% 30.29 in 10.0 mi SSE 3.5 mph - N/A   Overcast
8:35 PM 19.0 °F 10.0 °F 16.2 °F 89% 30.29 in 10.0 mi SSE 6.9 mph - N/A   Overcast
8:55 PM 20.1 °F 9.5 °F 16.7 °F 87% 30.29 in 10.0 mi SE 9.2 mph - N/A   Overcast
9:15 PM 21.0 °F 11.4 °F 17.2 °F 85% 30.29 in 10.0 mi SE 8.1 mph - N/A   Overcast
9:35 PM 21.2 °F 10.1 °F 17.4 °F 85% 30.29 in 10.0 mi SSE 10.4 mph - N/A   Overcast
9:55 PM 21.2 °F 11.7 °F 17.2 °F 85% 30.28 in 10.0 mi SSE 8.1 mph - N/A   Overcast
10:15 PM 21.0 °F 10.6 °F 17.2 °F 85% 30.28 in 10.0 mi SE 9.2 mph - N/A   Overcast
10:35 PM 19.9 °F 10.1 °F 16.9 °F 88% 30.28 in 10.0 mi SE 8.1 mph - N/A   Overcast
10:55 PM 18.5 °F 8.4 °F 16.3 °F 91% 30.28 in 10.0 mi SSE 8.1 mph - N/A   Scattered Clouds
11:15 PM 17.2 °F 7.8 °F 15.3 °F 92% 30.28 in 10.0 mi South 6.9 mph - N/A   Clear
11:35 PM 16.0 °F 7.4 °F 14.2 °F 93% 30.27 in 10.0 mi South 5.8 mph - N/A   Clear
11:55 PM 14.0 °F 3.9 °F 12.2 °F 93% 30.27 in 10.0 mi South 6.9 mph - N/A   Clear